Regional Weather Roundup
Issued by NWS

Home | Current Version | Previous Version | Text Only | Print | Product List | Glossary On
Versions: 1 2 3 4 5 6 7 8 9 10 11 12 13 14 15 16 17 18 19 20 21 22 23 24 25 26 27 28 29 30 31 32 33 34 35 36 37 38 39 40 41 42 43 44 45 46 47 48 49
000
ASUS43 KMPX 132010
RWRMN
WEATHER ROUNDUP FOR MINNESOTA
NATIONAL WEATHER SERVICE TWIN CITIES/CHANHASSEN MN
300 PM CDT THU AUG 13 2020


NOTE: "FAIR" INDICATES FEW OR NO CLOUDS BELOW 12,000 FEET WITH NO
SIGNIFICANT WEATHER AND/OR OBSTRUCTIONS TO VISIBILITY. N/A MEANS
CURRENT SKY AND/OR WEATHER CONDITIONS ARE NOT AVAILABLE.

MNZ060>063-068>070-132100-
   Twin Cities Metro

CITY           SKY/WX    TMP DP  RH WIND       PRES   REMARKS
TWIN CITIES    MOSUNNY   87  71  58 S13G22    29.97F HX  93
ST PAUL        PTSUNNY   87  73  62 SE14G23   29.97S HX  94
CRYSTAL        MOSUNNY   88  71  57 S12G24    29.95F HX  94
BLAINE         MOSUNNY   88  72  58 S12G18    29.97S HX  94
LAKEVILLE      MOSUNNY   88  66  48 S10       29.98F HX  90
EDEN PRAIRIE   MOSUNNY   87  72  60 S14       29.96S HX  93
SOUTH ST PAUL  MOSUNNY   87  70  58 S9G16     29.97F HX  91
LAKE ELMO      PTSUNNY   84  72  65 S14G20    29.99F
$$
MNZ001>005-007-008-013>017-022>024-027-028-132100-
   Northwest Minnesota

CITY           SKY/WX    TMP DP  RH WIND       PRES   REMARKS
BEMIDJI        CLOUDY    75  69  81 SE18      29.89F
HALLOCK        PTSUNNY   73  70  88 N10       29.85S
ROSEAU         MOSUNNY   75 N/A N/A SE7       29.89S
WARROAD        CLOUDY    77  70  78 SW5       29.91R
THIEF RVR FALL PTSUNNY   80  70  71 SE9       29.86F
CROOKSTON      MOSUNNY   81  73  78 SE10      29.82S
FOSSTON        MOSUNNY   79  68  69 S13G21    29.87R
DETROIT LAKES    N/A     86  70  58 S18G24    29.86S HX  90
MOORHEAD       MOSUNNY   90  70  51 S15G23    29.79S HX  95
PARK RAPIDS    MOSUNNY   84  71  65 S18G29    29.88F
MAHNOMEN       FAIR      85  73  66 S16G24    29.83R HX  91
$$
MNZ006-009>011-018-025>026-132100-
   North Central Minnesota

CITY           SKY/WX    TMP DP  RH WIND       PRES   REMARKS
BAUDETTE       MOSUNNY   78  67  68 SE15G26   29.89R
FLAG ISLAND      N/A     73  64  73 S5        29.90R
INTL FALLS     PTSUNNY   77  66  68 SE17G26   29.92F
WASKISH        MOSUNNY   75  66  73 SE18G24   29.88S
BIG FORK       CLOUDY    72  66  83 S9G17     30.00S
LONGVILLE      CLOUDY    75  70  83 SE8       29.93F
GRAND RAPIDS   CLOUDY    71  68  90 SE10      29.98F
CRANE LAKE     SUNNY     79  66  65 S8G16     29.99F
ORR            CLOUDY    73  64  73 SE9       29.96F
COOK           CLOUDY    72  66  83 SE9       29.98F
WALKER         CLOUDY    74  70  87 SE7       29.91F
$$
MNZ012-019>021-037-132100-
   Northeast Minnesota

CITY           SKY/WX    TMP DP  RH WIND       PRES   REMARKS
DULUTH         CLOUDY    72  63  73 SE12      30.02F
ELY            MOSUNNY   77  63  61 S14       30.02S
HIBBING        CLOUDY    70  65  84 SE14G20   29.99F
EVELETH        CLOUDY    72  66  82 SE7       30.02S
DULUTH HARBOR  PTSUNNY   70  63  78 NE12      30.01F
SILVER BAY       N/A     72  59  64 NE8       30.05F
GRAND MARAIS     N/A     67  58  72 NE12G20   30.07F
G MARAIS ARPRT PTSUNNY   70  54  56 E9        30.11F
$$
MNZ029>031-032-039>041-046>048-054>057-064-132100-
   West Central Minnesota

CITY           SKY/WX    TMP DP  RH WIND       PRES   REMARKS
FERGUS FALLS   MOSUNNY   86  75  70 S20G29    29.83F HX  95
WHEATON        SUNNY     88  72  58 S21       29.83S HX  94
MORRIS         MOSUNNY   84  72  65 S20       29.88S
ALEXANDRIA     MOSUNNY   85  73  67 S21G31    29.92F HX  91
ELBOW LAKE     PTSUNNY   86  76  71 S21G30    29.86F HX  96
WADENA         SUNNY     84  72  65 S20G25    29.88S
GLENWOOD       SUNNY     88  73  62 S20G28    29.92S HX  96
APPLETON       MOSUNNY   88  72  58 S17G23    29.87S HX  94
BENSON         PTSUNNY   86  75  70 S15G22    29.89S HX  95
ORTONVILLE     MOSUNNY   88  73  62 S15G25    29.85S HX  96
MADISON        MOSUNNY   88  75  66 S18G26    29.87F HX  97
WILLMAR        FAIR      88  73  62 S9G18     29.94F HX  96
$$
MNZ033>034-036-042>043-049>051-058-059-132100-
   Central Minnesota

CITY           SKY/WX    TMP DP  RH WIND       PRES   REMARKS
ST CLOUD       PTSUNNY   81  72  74 S12       29.96S
SAUK CENTRE    MOCLDY    84  74  70 S14G24    29.93S HX  91
PAYNESVILLE    PTSUNNY   84  76  75 S10G18    29.94F HX  93
AITKIN         CLOUDY    75  68  78 SE10G20   29.95F
PINE RIVER     PTSUNNY   79  72  78 SE14      29.95F
BRAINERD       CLOUDY    82  71  69 S16G25    29.94S
STAPLES        PTSUNNY   82  72  69 S14G23    29.90F
LONG PRAIRIE   PTSUNNY   82  72  69 S16G24    29.93S
LITTLE FALLS   PTSUNNY   82  73  74 SE15G21   29.93F
CAMP RIPLEY    MOCLDY    83  74  74 S15       29.93F HX  91
LITCHFIELD     MOSUNNY   88  75  66 S6        29.95S HX  97
BUFFALO        MOSUNNY   84  71  65 MISG      29.98S
MAPLE LAKE       N/A     84  75  73 S5        29.97F HX  92
HUTCHINSON     PTSUNNY   85  77  75 SE8       29.97S HX  96
$$
MNZ037-044-045-052-053-132100-
   East Central Minnesota

CITY           SKY/WX    TMP DP  RH WIND       PRES   REMARKS
PRINCETON      SUNNY     86  73  66 S10       29.97F HX  93
MORA           MOSUNNY   79  70  73 S8        29.99F
CAMBRIDGE      SUNNY     86  72  62 S7        29.97F HX  92
RUSH CITY      MOSUNNY   82  71  68 S9        29.98F
MOOSE LAKE     PTSUNNY   77  70  78 SE3       29.98F
HINCKLEY       MOCLDY    81  73  78 SE6       29.99F
CLOQUET        CLOUDY    70  64  83 E6        30.03S
MCGREGOR       CLOUDY    75  70  83 SE9       29.98F
$$
MNZ071>073-080-081-089-090-097-098-132100-
   Southwest Minnesota

CITY           SKY/WX    TMP DP  RH WIND       PRES   REMARKS
MONTEVIDEO     MOSUNNY   88  70  55 SW16      29.90S HX  92
GRANITE FALLS  SUNNY     88  75  65 S16G24    29.92F HX  98
CANBY          MOSUNNY   87  72  61 S15G23    29.90S HX  92
MARSHALL       MOSUNNY   87  72  60 S22G28    29.90F HX  93
REDWOOD FALLS  MOSUNNY   88  72  58 S16G26    29.92F HX  94
OLIVIA         MOSUNNY   86  73  66 S12G22    29.93F HX  93
PIPESTONE        N/A     82  72  69 SW18G24   29.94F
WINDOM         SUNNY     84  70  61 S12       29.96F
WORTHINGTON    MOSUNNY   84  73  69 S16       29.97F HX  90
JACKSON        SUNNY     86  68  54 S14       29.99F
TRACY          MOSUNNY   87  70  57 S12G20    29.94F HX  92
SLAYTON        SUNNY     85  65  52 S16       29.96F
$$
MNZ065>067-074>077-082>085-091>093-132100-
   South Central Minnesota

CITY           SKY/WX    TMP DP  RH WIND       PRES   REMARKS
MANKATO        MOSUNNY   85  76  74 S14G21    29.98F HX  94
NEW ULM        SUNNY     86  72  62 S14G21    29.96S HX  92
ST JAMES         N/A     86  72  62 S15       29.96S HX  92
FAIRMONT       MOSUNNY   87  72  60 MISG      29.98F HX  93
GLENCOE        MOSUNNY   86  74  68 SE9       29.96F HX  94
FARIBAULT      PTSUNNY   84  73  70 S9        30.00S HX  91
OWATONNA       MOSUNNY   86  73  66 S9        30.00F HX  93
ALBERT LEA     PTSUNNY   84  73  70 S10G16    30.01F HX  91
$$
MNZ078>079-086>088-094>096-132100-
   Southeast Minnesota

CITY           SKY/WX    TMP DP  RH WIND       PRES   REMARKS
ROCHESTER      MOSUNNY   84  71  65 S13G23    30.04F
RED WING       MOSUNNY   82  72  69 SE6       29.99S
STANTON        PTSUNNY   87  73  63 S10G16    29.98S HX  94
DODGE CENTER   MOSUNNY   82  72  69 S10G17    30.03S
WINONA         MOSUNNY   86  72  62 S6        30.03S HX  92
AUSTIN         PTSUNNY   84  72  65 S10G17    30.03F
PRESTON        MOSUNNY   83  70  66 SE12      30.05F
$$
ABBREVIATIONS USED IN REMARKS
   TC - TEMPERATURES IN CELSIUS
  WCI - WIND CHILL INDEX
   HX - HEAT INDEX
  VSB - VISIBILITY
$$




USA.gov is the U.S. government's official web portal to all federal, state and local government web resources and services.